Precipitable_Water
0.35 0.35 0.34 0.33 0.32 0.31 0.30 0.30 0.32 0.35 0.37 0.40 0.45 0.50 0.54 0.57 0.60 0.60 0.58 0.57 0.54 0.55 0.55 0.54 0.54 0.56 0.52 0.50 0.47 0.43 0.38 0.37 0.32 0.33 0.36 0.36 0.37 0.38 0.41 0.43 0.41 0.40 0.37
0.31 0.29 0.30 0.29 0.27 0.25 0.24 0.23 0.24 0.24 0.26 0.28 0.30 0.32 0.39 0.46 0.51 0.57 0.58 0.59 0.57 0.53 0.53 0.54 0.52 0.54 0.53 0.52 0.50 0.47 0.43 0.40 0.36 0.33 0.35 0.36 0.36 0.37 0.38 0.40 0.40 0.40 0.37
0.26 0.24 0.25 0.25 0.26 0.24 0.21 0.19 0.18 0.19 0.19 0.20 0.20 0.21 0.23 0.29 0.36 0.43 0.51 0.58 0.59 0.59 0.58 0.54 0.52 0.53 0.51 0.51 0.51 0.50 0.48 0.45 0.40 0.35 0.33 0.36 0.35 0.36 0.36 0.39 0.39 0.39 0.38
0.22 0.22 0.20 0.20 0.20 0.21 0.21 0.20 0.18 0.16 0.16 0.16 0.15 0.15 0.16 0.17 0.20 0.25 0.32 0.40 0.53 0.60 0.60 0.59 0.58 0.56 0.52 0.51 0.51 0.50 0.50 0.48 0.44 0.38 0.34 0.34 0.33 0.35 0.35 0.35 0.36 0.39 0.40
0.20 0.19 0.17 0.17 0.18 0.17 0.17 0.17 0.16 0.16 0.15 0.15 0.13 0.13 0.13 0.13 0.14 0.15 0.19 0.23 0.27 0.36 0.52 0.61 0.61 0.60 0.59 0.57 0.52 0.50 0.50 0.49 0.47 0.43 0.37 0.34 0.31 0.32 0.33 0.37 0.37 0.39 0.41
0.19 0.18 0.17 0.17 0.16 0.16 0.16 0.16 0.15 0.14 0.13 0.13 0.12 0.13 0.12 0.12 0.12 0.13 0.15 0.16 0.18 0.20 0.23 0.34 0.51 0.62 0.61 0.59 0.59 0.56 0.51 0.49 0.48 0.46 0.43 0.38 0.32 0.32 0.34 0.34 0.35 0.37 0.38
0.21 0.20 0.19 0.18 0.16 0.15 0.15 0.14 0.13 0.12 0.13 0.12 0.12 0.12 0.12 0.12 0.13 0.13 0.14 0.14 0.15 0.16 0.16 0.18 0.24 0.37 0.53 0.61 0.60 0.59 0.58 0.52 0.51 0.50 0.46 0.44 0.38 0.34 0.33 0.33 0.34 0.35 0.37
0.19 0.18 0.18 0.17 0.16 0.15 0.14 0.13 0.13 0.12 0.11 0.11 0.11 0.11 0.11 0.11 0.13 0.14 0.14 0.15 0.14 0.14 0.15 0.15 0.16 0.19 0.26 0.40 0.54 0.58 0.59 0.61 0.56 0.52 0.50 0.49 0.48 0.42 0.36 0.33 0.33 0.33 0.36
0.17 0.15 0.15 0.15 0.14 0.13 0.12 0.12 0.12 0.12 0.11 0.11 0.11 0.11 0.11 0.11 0.11 0.12 0.13 0.14 0.14 0.14 0.15 0.15 0.14 0.14 0.17 0.22 0.32 0.45 0.56 0.58 0.66 0.64 0.55 0.53 0.51 0.49 0.44 0.39 0.34 0.35 0.36
0.13 0.13 0.13 0.13 0.13 0.12 0.12 0.12 0.13 0.13 0.12 0.12 0.11 0.11 0.10 0.10 0.10 0.10 0.11 0.13 0.12 0.12 0.13 0.14 0.15 0.14 0.14 0.17 0.20 0.27 0.39 0.52 0.55 0.60 0.62 0.61 0.57 0.52 0.49 0.46 0.40 0.34 0.32
0.12 0.11 0.11 0.10 0.10 0.10 0.10 0.11 0.12 0.12 0.13 0.13 0.13 0.12 0.12 0.12 0.11 0.11 0.11 0.12 0.12 0.13 0.13 0.12 0.13 0.14 0.15 0.16 0.18 0.21 0.25 0.40 0.49 0.53 0.56 0.59 0.60 0.61 0.55 0.49 0.47 0.41 0.35
0.10 0.09 0.09 0.09 0.10 0.11 0.11 0.12 0.12 0.12 0.11 0.11 0.11 0.11 0.11 0.12 0.12 0.13 0.14 0.14 0.14 0.14 0.13 0.15 0.15 0.15 0.16 0.18 0.20 0.21 0.24 0.32 0.40 0.46 0.48 0.51 0.53 0.54 0.56 0.55 0.54 0.48 0.43
0.08 0.08 0.10 0.12 0.13 0.13 0.12 0.11 0.11 0.12 0.12 0.11 0.11 0.11 0.11 0.12 0.12 0.12 0.13 0.14 0.15 0.15 0.16 0.17 0.18 0.19 0.19 0.19 0.19 0.22 0.24 0.28 0.33 0.36 0.40 0.44 0.48 0.51 0.50 0.50 0.49 0.47 0.44
0.09 0.12 0.14 0.13 0.12 0.13 0.13 0.14 0.14 0.12 0.12 0.11 0.11 0.11 0.11 0.12 0.12 0.12 0.12 0.12 0.12 0.17 0.19 0.18 0.19 0.19 0.19 0.17 0.18 0.21 0.24 0.26 0.28 0.34 0.35 0.41 0.46 0.47 0.46 0.49 0.47 0.46 0.43
0.14 0.14 0.14 0.13 0.13 0.13 0.13 0.12 0.11 0.11 0.11 0.11 0.11 0.12 0.11 0.11 0.13 0.14 0.15 0.15 0.15 0.14 0.17 0.19 0.19 0.16 0.14 0.14 0.16 0.20 0.21 0.24 0.25 0.31 0.35 0.36 0.38 0.42 0.42 0.44 0.44 0.44 0.42
0.15 0.14 0.14 0.13 0.13 0.13 0.11 0.10 0.11 0.12 0.13 0.13 0.13 0.12 0.13 0.14 0.15 0.15 0.15 0.17 0.16 0.16 0.16 0.15 0.15 0.15 0.15 0.15 0.15 0.17 0.20 0.21 0.24 0.28 0.33 0.33 0.35 0.37 0.38 0.39 0.40 0.39 0.38
0.14 0.14 0.14 0.13 0.13 0.13 0.11 0.11 0.10 0.12 0.13 0.14 0.13 0.13 0.13 0.13 0.15 0.16 0.16 0.16 0.17 0.17 0.15 0.15 0.15 0.16 0.16 0.16 0.16 0.17 0.18 0.21 0.26 0.28 0.30 0.32 0.32 0.34 0.34 0.35 0.35 0.35 0.34
0.14 0.14 0.13 0.12 0.12 0.13 0.13 0.12 0.12 0.12 0.12 0.13 0.15 0.14 0.14 0.14 0.14 0.15 0.17 0.17 0.16 0.16 0.15 0.15 0.16 0.16 0.16 0.18 0.17 0.18 0.19 0.22 0.24 0.25 0.28 0.30 0.30 0.30 0.30 0.31 0.31 0.31 0.31
0.14 0.13 0.13 0.12 0.12 0.13 0.14 0.14 0.13 0.13 0.13 0.14 0.15 0.15 0.15 0.16 0.15 0.14 0.16 0.17 0.17 0.17 0.16 0.17 0.18 0.19 0.18 0.20 0.18 0.19 0.20 0.21 0.23 0.24 0.25 0.28 0.29 0.28 0.28 0.28 0.29 0.29 0.29
0.14 0.13 0.13 0.12 0.11 0.12 0.13 0.14 0.14 0.14 0.14 0.15 0.14 0.14 0.16 0.17 0.15 0.14 0.14 0.15 0.16 0.18 0.19 0.19 0.19 0.22 0.21 0.21 0.20 0.20 0.21 0.22 0.23 0.23 0.24 0.26 0.26 0.26 0.26 0.26 0.26 0.26 0.26
0.13 0.13 0.12 0.12 0.11 0.11 0.11 0.12 0.14 0.14 0.14 0.14 0.14 0.15 0.16 0.15 0.15 0.16 0.15 0.15 0.15 0.16 0.18 0.18 0.18 0.20 0.22 0.20 0.21 0.22 0.22 0.22 0.22 0.22 0.23 0.24 0.25 0.24 0.25 0.25 0.24 0.24 0.24
0.13 0.12 0.12 0.11 0.11 0.11 0.11 0.11 0.11 0.12 0.14 0.14 0.15 0.15 0.16 0.15 0.15 0.15 0.16 0.17 0.17 0.18 0.20 0.21 0.21 0.21 0.21 0.22 0.22 0.22 0.21 0.21 0.21 0.21 0.22 0.22 0.23 0.23 0.23 0.22 0.22 0.22 0.22
0.12 0.12 0.11 0.11 0.11 0.11 0.11 0.11 0.11 0.11 0.12 0.13 0.14 0.15 0.15 0.15 0.15 0.15 0.15 0.16 0.17 0.18 0.19 0.20 0.20 0.20 0.21 0.22 0.22 0.22 0.21 0.20 0.21 0.21 0.21 0.21 0.21 0.21 0.21 0.21 0.21 0.20 0.20
0.11 0.11 0.11 0.11 0.11 0.11 0.11 0.11 0.11 0.11 0.11 0.12 0.12 0.14 0.14 0.15 0.15 0.15 0.15 0.16 0.16 0.17 0.18 0.18 0.18 0.19 0.19 0.20 0.20 0.20 0.20 0.20 0.21 0.20 0.21 0.21 0.20 0.20 0.20 0.20 0.20 0.19 0.19
0.10 0.10 0.11 0.11 0.11 0.11 0.11 0.11 0.11 0.11 0.11 0.11 0.12 0.12 0.13 0.14 0.15 0.15 0.15 0.15 0.16 0.16 0.16 0.17 0.17 0.18 0.18 0.18 0.18 0.19 0.19 0.19 0.19 0.20 0.20 0.20 0.19 0.19 0.19 0.19 0.18 0.18 0.18
0.09 0.09 0.09 0.10 0.10 0.11 0.11 0.11 0.11 0.11 0.11 0.11 0.12 0.12 0.12 0.13 0.14 0.14 0.15 0.15 0.15 0.15 0.15 0.16 0.16 0.16 0.17 0.17 0.17 0.18 0.18 0.18 0.18 0.19 0.19 0.19 0.18 0.18 0.18 0.17 0.17 0.17 0.16
Wind_Speed
38 38 38 38 38 38 38 38 39 39 39 40 41 42 42 43 44 46 47 48 49 50 51 53 55 56 57 57 56 55 55 52 50 49 48 47 46 44 43 42 41 40 39
41 41 42 42 41 41 41 42 42 42 42 43 43 43 44 45 45 47 47 48 49 50 51 53 54 54 57 57 58 58 57 57 54 52 51 49 48 47 45 44 43 41 40
42 42 43 43 44 45 45 45 45 46 46 46 46 47 47 47 47 47 48 50 50 50 51 52 54 55 56 57 58 58 58 58 58 55 53 52 50 50 47 46 44 43 41
43 44 46 46 48 49 50 51 51 51 51 51 51 51 51 51 50 51 51 51 52 54 54 53 53 53 55 56 57 58 58 58 58 58 57 55 54 52 51 49 46 44 43
47 48 49 51 52 53 54 55 55 56 56 56 56 56 55 55 55 54 54 55 55 55 56 58 57 56 56 56 57 58 57 58 58 58 58 57 56 54 53 50 48 46 45
51 53 54 55 56 57 57 58 59 60 60 61 61 61 61 60 59 59 59 59 59 59 59 58 60 60 59 59 59 59 59 58 59 59 59 60 60 58 56 53 50 47 46
55 56 56 57 58 59 60 61 62 63 63 64 64 64 65 64 64 64 63 62 63 62 62 62 61 61 62 62 61 61 62 62 63 61 62 62 61 61 59 56 55 53 51
54 56 57 58 60 61 62 64 65 66 67 68 68 68 69 68 68 67 67 67 67 66 65 65 64 64 62 62 62 62 62 62 63 64 64 64 63 62 63 62 60 57 54
52 54 56 57 60 63 65 66 68 69 70 70 71 72 72 72 72 71 70 70 70 70 69 68 67 67 65 64 65 65 65 65 64 64 64 64 66 65 64 61 60 59 57
52 53 56 59 61 64 65 67 67 68 70 70 72 71 72 74 74 73 72 72 73 73 72 71 70 69 68 67 66 66 66 66 64 63 64 64 63 64 66 67 64 61 59
53 57 59 61 62 64 66 66 67 68 69 70 71 71 71 71 72 72 72 71 71 72 72 72 71 70 69 69 68 68 68 64 66 65 64 65 66 65 64 65 65 65 63
57 59 60 61 61 62 63 64 65 66 67 67 68 68 67 67 68 69 69 70 70 70 71 70 70 69 69 68 68 69 69 66 64 65 65 64 65 66 67 67 65 65 65
58 58 58 58 58 59 59 60 59 57 57 57 57 57 58 58 60 63 64 66 67 67 67 67 68 67 67 67 68 68 66 66 65 63 64 65 64 63 62 63 63 62 61
55 54 54 55 55 54 50 47 46 45 45 45 45 47 48 50 52 53 55 57 60 59 59 63 63 63 64 65 64 64 65 65 64 63 62 62 61 60 61 61 60 59 58
49 50 50 49 47 43 41 40 41 42 42 43 44 45 46 46 47 48 48 49 51 54 55 54 55 58 58 59 60 60 61 61 62 62 61 60 60 59 58 60 58 58 57
45 44 43 43 41 39 38 38 38 40 40 41 43 44 44 46 47 47 46 47 48 50 51 52 52 52 53 53 53 54 55 57 58 58 59 58 58 58 56 55 55 56 55
40 39 40 41 39 37 36 35 36 36 37 37 37 37 38 39 39 39 40 41 42 43 44 45 46 47 48 49 49 49 51 52 53 54 55 55 55 55 54 53 52 51 52
36 36 37 39 37 34 34 34 34 34 34 34 34 35 34 34 34 32 31 31 32 34 37 38 40 42 43 44 45 45 46 48 49 50 51 51 51 52 52 52 51 51 49
33 33 35 36 36 34 32 32 32 33 33 33 33 32 32 31 29 28 27 24 24 26 28 30 33 35 37 39 40 41 42 43 44 45 46 47 47 48 49 50 49 50 49
30 31 33 33 33 32 30 29 29 29 30 30 30 29 30 28 25 24 22 20 19 20 23 25 27 28 30 32 34 36 37 38 39 40 42 42 43 44 44 45 46 45 45
28 29 30 30 31 31 31 30 29 28 28 28 28 28 29 26 23 21 19 17 16 16 16 17 19 22 23 26 28 30 31 33 34 36 37 38 38 38 39 40 41 42 43
26 27 27 28 29 29 30 30 30 29 27 26 27 26 27 24 22 19 17 15 13 12 9 7 10 13 17 19 22 24 26 28 29 31 32 33 34 34 34 34 34 36 38
24 25 26 26 27 28 29 29 29 29 29 27 25 24 23 23 22 20 18 15 13 11 9 8 8 9 10 13 16 19 22 23 26 28 29 29 30 30 30 30 32 32 33
22 23 24 25 26 27 27 28 28 28 28 27 26 24 23 22 21 20 18 16 14 11 9 6 4 4 6 8 12 14 17 19 22 24 25 26 26 27 27 26 26 28 28
20 21 23 24 24 25 26 26 27 27 27 27 26 25 23 21 20 19 18 16 15 13 11 7 4 2 1 3 6 9 13 16 19 20 21 23 23 23 24 24 24 24 25
19 20 21 22 23 24 25 25 26 26 25 25 25 24 23 21 19 18 17 16 15 13 12 10 8 6 3 1 2 5 8 12 15 19 19 19 20 20 21 21 22 23 23
Wind_Direction
283 283 283 283 283 284 284 284 283 282 282 281 280 278 276 274 272 270 268 266 264 262 260 258 257 256 255 255 254 254 254 255 256 256 254 253 252 253 253 253 253 253 253
281 282 282 282 283 283 282 283 283 282 282 282 281 279 278 276 274 271 270 267 265 263 262 260 259 257 256 255 254 254 253 253 254 254 253 251 251 250 252 252 252 252 252
282 282 283 282 282 282 281 282 283 282 281 281 280 279 278 277 274 273 271 268 266 264 263 261 260 258 257 256 255 254 253 252 251 252 251 249 250 248 249 251 251 250 251
283 284 284 283 283 282 281 281 282 282 281 280 279 278 277 276 274 273 271 269 267 264 263 263 262 260 258 256 255 254 253 251 250 249 249 248 247 247 247 248 249 250 251
283 285 285 284 283 282 282 282 282 282 281 279 278 277 276 275 274 273 271 269 267 266 264 262 261 260 259 258 256 254 252 250 248 247 247 246 246 245 245 247 248 248 250
285 286 286 285 284 284 282 282 282 282 281 279 278 277 276 275 274 272 271 269 267 266 265 264 261 260 259 258 257 254 252 250 248 247 246 245 245 245 244 245 245 247 250
286 286 286 286 285 285 284 283 283 282 281 280 278 277 276 274 273 272 271 269 267 265 264 263 262 260 259 257 256 255 253 250 248 247 246 245 245 243 243 244 244 246 250
288 288 288 287 286 286 285 284 284 283 281 280 278 277 275 274 273 272 270 269 267 265 263 263 261 260 259 257 255 254 253 251 250 248 247 246 245 245 244 244 245 246 249
292 292 291 290 289 288 287 286 285 283 282 280 279 277 275 273 272 271 270 269 266 264 263 262 261 260 259 257 256 254 253 251 250 249 248 247 246 244 243 243 244 244 248
296 295 295 294 293 291 290 288 287 285 283 281 280 278 276 275 272 271 269 267 265 264 262 261 259 259 258 257 255 254 253 251 250 249 248 246 246 245 243 243 243 244 245
299 298 297 296 295 293 292 290 289 287 285 283 281 279 277 275 273 271 269 267 265 263 261 260 259 257 257 255 254 253 252 252 250 249 248 246 245 244 243 243 243 244 245
301 300 299 298 297 295 294 292 291 289 287 285 282 280 278 276 274 272 269 267 265 263 260 259 258 257 256 255 253 252 251 250 249 248 247 246 245 245 244 243 244 244 245
304 303 302 301 300 299 297 296 294 292 290 288 286 284 282 279 276 273 270 267 265 262 260 258 256 255 255 254 252 251 249 248 246 247 247 246 246 245 244 243 243 243 245
306 306 306 305 304 303 301 300 299 298 296 293 291 288 286 284 281 277 272 268 265 262 261 256 254 253 253 253 252 250 247 246 245 246 247 245 244 243 242 242 242 241 242
309 310 310 310 310 308 306 305 304 302 299 297 294 293 291 288 285 281 276 271 266 261 259 257 254 252 251 251 250 248 246 244 243 244 245 243 242 241 241 240 241 240 239
313 314 315 315 313 311 310 309 309 308 307 303 300 297 295 291 289 284 279 275 269 263 258 255 254 252 250 249 248 247 244 243 242 242 242 242 240 239 239 239 239 238 239
317 319 321 321 317 313 312 311 312 315 313 311 310 308 304 301 297 291 284 277 270 263 257 254 253 250 249 247 248 245 243 242 241 240 239 240 238 237 236 237 238 239 239
321 323 325 328 325 319 315 314 314 316 318 318 317 315 313 310 306 301 295 285 273 263 257 255 252 251 248 245 245 243 242 241 239 238 236 236 236 235 236 236 237 238 238
324 327 330 332 333 328 323 321 319 318 319 320 321 319 319 316 313 308 304 295 281 268 259 253 254 250 245 241 243 242 240 238 236 235 233 234 235 235 235 235 236 236 236
326 330 334 337 339 340 336 330 329 330 329 328 327 328 329 324 318 315 310 303 292 279 265 256 255 248 242 242 242 239 236 235 233 232 231 231 232 233 233 234 233 234 234
328 332 337 340 343 345 345 344 338 334 334 335 336 336 336 337 331 324 321 318 312 304 276 260 252 245 243 243 237 234 232 231 230 229 227 228 229 231 231 231 232 232 230
327 331 336 340 343 346 348 349 349 348 341 339 341 343 346 348 348 343 337 330 327 324 316 282 258 254 248 239 232 229 227 227 226 224 223 225 226 227 227 228 227 226 226
326 331 335 339 342 345 347 350 352 354 354 352 349 349 351 352 354 356 353 347 339 329 319 301 281 262 246 236 230 227 225 225 223 221 220 221 222 221 222 223 223 223 225
325 331 335 339 341 344 347 350 353 355 357 358 359 357 355 356 358 360 1 360 359 355 347 333 310 272 248 235 230 228 223 220 218 216 216 215 216 217 216 217 217 219 221
325 330 335 339 342 345 347 350 352 354 357 0 2 3 3 3 5 7 10 12 14 16 18 16 6 349 283 227 222 220 217 214 211 208 208 208 208 210 212 214 216 218 221
324 329 333 337 341 343 346 348 350 352 354 356 359 2 5 6 6 7 11 15 18 23 27 31 35 41 51 84 159 181 190 193 196 199 201 202 204 208 211 214 217 221 224